Preview of NWS' New Version of Forecast
This preview is not operational and should not be used for support decisions.

Regional Weather Roundup (RWR)

Issued by Gray - Portland, ME (GYX)

                            
000
ASUS41 KGYX 252210
RWRGYX
WEATHER ROUNDUP FOR MAINE AND NEW HAMPSHIRE
NATIONAL WEATHER SERVICE GRAY ME
600 PM EDT TUE JUN 25 2019

MEZ002-005-006-010-012-015-018-020-021-024-026-027-029-252300-
MAINE
  
CITY           SKY/WX    TMP DP  RH WIND       PRES   REMARKS
PORTLAND       LGT RAIN  59  57  93 E7        29.92F VSB 1            
SANFORD        LGT RAIN  63  62  97 SE5       29.90F FOG              
BAR HARBOR     CLOUDY    61  50  67 SE13      29.99F                  
WISCASSET      CLOUDY    60  57  89 SE6       29.96F                  
ROCKLAND       LGT RAIN  57  55  93 CALM      29.97F                  
FRYEBURG       RAIN      62  60  93 E3        29.91S FOG              
LEWISTONAUBURN LGT RAIN  61  60  97 E7        29.92F FOG              
AUGUSTA        CLOUDY    60  59  96 SE9       29.94F                  
WATERVILLE     LGT RAIN  62  59  90 VRB3      29.91F                  
BANGOR         LGT RAIN  66  48  52 SE10      29.96F                  
GREENVILLE       N/A     62  47  57 SE8       29.93R                  
MILLINOCKET    CLOUDY    72  41  32 VRB5      29.94F                  
HOULTON        FAIR      71  48  43 S12G18    29.93R                  
PRESQUE ISLE   FAIR      72  53  51 S7        29.92F                  
FRENCHVILLE    FAIR      73  48  41 SE12      29.90F                  
CARIBOU        FAIR      73  49  42 S9        29.91S                  
$$

NHZ002-005-008-009-011-012-014-252300-
NEW HAMPSHIRE
  
CITY           SKY/WX    TMP DP  RH WIND       PRES   REMARKS
PORTSMOUTH     LGT RAIN  65  65 100 SE12      29.86F FOG              
ROCHESTER      LGT RAIN  65  63  93 SE3       29.87F FOG              
NASHUA         CLOUDY    71  71 100 SE5       29.86S                  
MANCHESTER     LGT RAIN  72  69  90 S8        29.84S FOG              
CONCORD        LGT RAIN  66  65  96 E6        29.85F FOG              
LACONIA        RAIN      64  63  96 NE6       29.88S FOG              
PLYMOUTH       RAIN      63  61  94 CALM      29.89S                  
BERLIN         HVY RAIN  63  59  87 SW3       29.90R VSB 3/4          
WHITEFIELD     LGT RAIN  63  60  90 CALM      29.89S FOG              
JAFFREY        CLOUDY    70  67  90 S7        29.88R                  
KEENE          CLOUDY    69  67  93 N3        29.85R                  
LEBANON        CLOUDY    70  63  78 NE9       29.84F                  
MT WASHINGTON  LGT RAIN  50  50 100 S31G48      N/A  VSB 0            
$$

VTZ005-007-008-252300-
VERMONT
  
CITY           SKY/WX    TMP DP  RH WIND       PRES   REMARKS
ST JOHNSBURY     N/A     64  63  96 MISG      29.86F                  
MONTPELIER     CLOUDY    66  64  93 S7        29.90R                  
BURLINGTON     FAIR      80  68  66 S6        29.78F                  
$$

MAZ007-012-024-CTZ003-RIZ002-NYZ038-NYZ072-252300-
SOUTHERN NEW ENGLAND AND NY
  
CITY           SKY/WX    TMP DP  RH WIND       PRES   REMARKS
BOSTON         CLOUDY    72  66  81 S10       29.87S                  
WORCESTER      CLOUDY    67  66  97 S13G23    29.88R                  
NANTUCKET      LGT RAIN  64  62  93 S14       29.90F                  
PROVIDENCE     LGT RAIN  68  67  96 S15       29.89S FOG              
HARTFORD       LGT RAIN  72  69  90 E13       29.82S FOG              
ALBANY         PTSUNNY   83  65  54 SE3       29.79F                  
NEW YORK CITY  PTSUNNY   85  66  53 VRB3      29.80S                  
$$

ANZ081-ANZ082-ANZ150-NHZ014-MEZ023>029-252300-
COASTAL MARINE OBSERVATIONS
  
STATION/POSITION TIME  TEMP    WIND        PRES    WAVE
                       AIR SEA DIR/SP/G            HT/PER
                 (UTC) (F)     (DEG/KT/KT) (MB)    (FT/S)
ISLE OF SHOALS   2100   62     150/ 22/ 23 1011.3F
JEFFREYS LEDGE   2138      58                N/A     3/ 5
CASHES LEDGE BUO 2150   58 57  150/ 12/ 14 1014.3S   2/ 4
GEORGES BANK BUO 2150   59 57  130/  6/  8 1017.9F   2/ 6
$$

.............KEY..............
   WCI - WIND CHILL
   TC  - TEMPERATURE IN CELSIUS
   VSB - VISIBILITY IN MILES
   HX  - HEAT INDEX
   FAIR- INDICATES FEW OR NO CLOUDS BELOW 12,000 FT, WITH NO 
         SIGNIFICANT WEATHER AND/OR OBSTRUCTIONS TO VISIBILITY.